799  
NZUS99 KSGF 070107  
HRRSGF  
 
HOURLY WEATHER  
NATIONAL WEATHER SERVICE SPRINGFIELD MO  
800 PM CDT THU MAY 06 2021  
   
.....SGF CWA...
 
 
 
CITY SKY/WX TMP DP RH WIND PRES REMARKS  
SPRINGFIELD CLEAR 56 39 53 NW9 30.19R  
JOPLIN CLEAR 58 41 53 N5 30.21S  
WEST PLAINS CLEAR 60 38 43 NW9 30.15R  
ROLLA PTCLDY 54 40 59 N6 30.17R  
OSAGE BEACH CLEAR 59 36 42 N5 30.19R  
BRANSON CLEAR 61 39 44 N9 30.18S  
   
.....SURROUNDING SGF CWA...
 
 
 
CITY SKY/WX TMP DP RH WIND PRES REMARKS  
CHANUTE CLEAR 63 35 35 N6 30.20F  
PARSONS CLEAR 63 36 36 NE3 30.21F  
COFFEYVILLE CLEAR 62 38 40 NE7 30.19S  
EMPORIA CLEAR 60 30 32 N8 30.22F  
GROVE OK CLEAR 63 39 42 CALM 30.21R  
ROGERS AR CLEAR 61 39 44 NW6 30.20S  
SILOAM SPRINGS CLEAR 60 44 55 N9 30.20S  
NEAR YELLVILLE CLEAR 65 36 34 NW10 30.16R  
   
.....KANSAS AND MISSOURI...
 
 
 
CITY SKY/WX TMP DP RH WIND PRES REMARKS  
KANSAS CTY INT CLEAR 61 34 36 NW5 30.20S  
DOWNTOWN KC CLEAR 61 33 35 NW6 30.19S  
COLUMBIA CLEAR 57 36 45 N7 30.17R  
SEDALIA CLEAR 60 36 40 NW7 30.19S  
ST JOSEPH CLEAR 59 32 36 NW7 30.21R  
ST LOUIS PTCLDY 59 34 39 NW9 30.14R  
SPIRIT OF STL CLEAR 56 36 47 NW6 30.14R  
KIRKSVILLE CLEAR 55 31 39 W3 30.16S  
WICHITA PTCLDY 65 35 33 NE8 30.21S  
TOPEKA CLEAR 60 35 39 N6 30.22S  
OLATHE CLEAR 60 34 37 NW6 30.21S  
   
.....TENNESSEE...
 
 
 
CITY SKY/WX TMP DP RH WIND PRES REMARKS  
MEMPHIS PTCLDY 66 56 70 CALM 30.06R  
NASHVILLE MOCLDY 53 49 86 S3 30.08R  
   
.....ARKANSAS....
 
 
 
CITY SKY/WX TMP DP RH WIND PRES REMARKS  
FAYETTEVILLE CLEAR 63 40 42 NW12 30.18S  
FT SMITH CLEAR 72 41 32 NW9 30.14S  
LITTLE ROCK CLEAR 73 41 31 NW15G21 30.09R  
   
.....OKLAHOMA....
 
 
 
CITY SKY/WX TMP DP RH WIND PRES REMARKS  
TULSA PTCLDY 69 40 34 NE9 30.15F  
PONCA CITY CLEAR 68 40 35 NE5 30.20S  
MCALESTER MOCLDY 73 48 41 CALM 30.17S  
OKLAHOMA CITY CLEAR 71 43 36 N8 30.18F  
   
.....IOWA.........
 
 
 
CITY SKY/WX TMP DP RH WIND PRES REMARKS  
DES MOINES PTCLDY 61 24 24 N10 30.13S  
QUAD CITIES CLOUDY 59 31 34 NW9G18 30.07S  
   
.....ILLINOIS.....
 
 
 
CITY SKY/WX TMP DP RH WIND PRES REMARKS  
QUINCY CLEAR 54 33 45 NW6 30.12S  
CHICAGO PTCLDY 50 26 39 E6 30.05R  
 
 
 
CLICK HERE TO GO TO PREVIOUS BULLETINS.

The Nexlab MO Page
The Nexlab KS Page Main Text Page